"read_dt","SO2 (ppb)","flags","PMT voltage (V)","lamp voltage (V)","lamp intensity (Hz)","internal temp (C)","react chamber temp (C)","sample flow (l/min)","pres (mmHg)","SO2 bkg (ppb)","SO2 coefficient"
2016-10-24 00:00:00,2719E-3,5C000000,-0724,0830,12211,028.3,045.5,0.449,727.6,01.19,0.508
2016-10-24 00:01:00,2613E-3,5C000000,-0724,0830,12140,028.3,045.5,0.450,727.6,01.19,0.508
2016-10-24 00:02:00,2746E-3,5C000000,-0724,0830,12378,028.3,045.5,0.449,727.6,01.19,0.508
2016-10-24 00:03:00,2807E-3,5C000000,-0724,0830,12162,028.3,045.5,0.449,727.6,01.19,0.508
2016-10-24 00:04:00,2672E-3,5C000000,-0724,0830,12085,028.3,045.5,0.449,727.6,01.19,0.508
2016-10-24 00:05:00,2746E-3,5C000000,-0724,0831,12058,028.3,045.5,0.450,727.6,01.19,0.508
2016-10-24 00:06:00,2562E-3,5C000000,-0724,0830,12170,028.3,045.5,0.449,727.6,01.19,0.508
2016-10-24 00:07:00,2907E-3,5C000000,-0724,0830,12329,028.3,045.5,0.449,727.6,01.19,0.508
2016-10-24 00:08:00,2790E-3,5C000000,-0724,0831,12089,028.3,045.4,0.449,727.6,01.19,0.508
2016-10-24 00:09:00,2723E-3,5C000000,-0724,0830,12094,028.3,045.5,0.449,727.6,01.19,0.508
2016-10-24 00:10:00,2738E-3,5C000000,-0724,0830,12319,028.3,045.5,0.450,727.6,01.19,0.508
2016-10-24 00:11:00,2809E-3,5C000000,-0724,0830,12150,028.3,045.5,0.449,727.6,01.19,0.508
2016-10-24 00:12:00,2712E-3,5C000000,-0724,0830,12125,028.3,045.5,0.449,727.6,01.19,0.508
2016-10-24 00:13:00,2799E-3,5C000000,-0724,0830,12268,028.3,045.5,0.449,727.6,01.19,0.508
2016-10-24 00:14:00,2887E-3,5C000000,-0724,0830,12146,028.3,045.4,0.449,727.6,01.19,0.508
2016-10-24 00:15:00,2690E-3,5C000000,-0724,0830,12140,028.3,045.5,0.449,727.7,01.19,0.508
2016-10-24 00:16:00,2669E-3,5C000000,-0724,0830,12167,028.3,045.5,0.449,727.7,01.19,0.508
2016-10-24 00:17:00,2786E-3,5C000000,-0724,0830,12128,028.3,045.5,0.450,727.7,01.19,0.508
2016-10-24 00:18:00,2761E-3,5C000000,-0724,0830,12277,028.3,045.5,0.449,727.7,01.19,0.508
2016-10-24 00:19:00,2843E-3,5C000000,-0724,0829,11987,028.3,045.5,0.449,727.7,01.19,0.508
2016-10-24 00:20:00,2848E-3,5C000000,-0724,0830,12214,028.3,045.5,0.449,727.7,01.19,0.508
2016-10-24 00:21:00,2703E-3,5C000000,-0724,0830,12317,028.3,045.5,0.449,727.7,01.19,0.508
2016-10-24 00:22:00,2714E-3,5C000000,-0724,0829,12241,028.3,045.5,0.450,727.7,01.19,0.508
2016-10-24 00:23:00,2760E-3,5C000000,-0724,0830,12063,028.3,045.5,0.449,727.7,01.19,0.508
2016-10-24 00:24:00,2828E-3,5C000000,-0724,0829,12286,028.3,045.5,0.450,727.7,01.19,0.508
2016-10-24 00:25:00,2711E-3,5C000000,-0724,0830,12034,028.3,045.4,0.449,727.7,01.19,0.508
2016-10-24 00:26:00,2776E-3,5C000000,-0724,0829,12299,028.3,045.5,0.449,727.7,01.19,0.508
2016-10-24 00:27:00,2751E-3,5C000000,-0724,0830,12335,028.3,045.4,0.449,727.7,01.19,0.508
2016-10-24 00:28:00,2754E-3,5C000000,-0724,0830,12120,028.3,045.5,0.449,727.7,01.19,0.508
2016-10-24 00:29:00,2855E-3,5C000000,-0724,0830,12201,028.3,045.5,0.449,727.7,01.19,0.508
2016-10-24 00:30:00,2613E-3,5C000000,-0724,0830,12115,028.3,045.5,0.449,727.7,01.19,0.508
2016-10-24 00:31:00,2501E-3,5C000000,-0724,0830,12184,028.3,045.5,0.450,727.7,01.19,0.508
2016-10-24 00:32:00,2840E-3,5C000000,-0724,0830,11956,028.3,045.5,0.449,727.7,01.19,0.508
2016-10-24 00:33:00,2676E-3,5C000000,-0724,0830,12430,028.3,045.5,0.449,727.7,01.19,0.508
2016-10-24 00:34:00,2692E-3,5C000000,-0724,0830,12269,028.3,045.4,0.449,727.7,01.19,0.508
2016-10-24 00:35:00,2587E-3,5C000000,-0724,0830,12059,028.3,045.5,0.449,727.7,01.19,0.508
2016-10-24 00:36:00,2663E-3,5C000000,-0724,0831,12229,028.3,045.5,0.449,727.8,01.19,0.508
2016-10-24 00:37:00,2617E-3,5C000000,-0724,0830,12285,028.3,045.4,0.449,727.8,01.19,0.508
2016-10-24 00:38:00,2743E-3,5C000000,-0724,0831,12132,028.3,045.5,0.450,727.8,01.19,0.508
2016-10-24 00:39:00,2748E-3,5C000000,-0724,0830,12114,028.3,045.5,0.449,727.8,01.19,0.508
2016-10-24 00:40:00,2723E-3,5C000000,-0724,0830,12259,028.3,045.5,0.449,727.8,01.19,0.508
2016-10-24 00:41:00,2826E-3,5C000000,-0724,0830,12026,028.3,045.5,0.449,727.8,01.19,0.508
2016-10-24 00:42:00,2823E-3,5C000000,-0724,0830,12208,028.3,045.5,0.449,727.8,01.19,0.508
2016-10-24 00:43:00,2700E-3,5C000000,-0724,0831,12238,028.3,045.4,0.450,727.8,01.19,0.508
2016-10-24 00:44:00,2792E-3,5C000000,-0724,0830,12282,028.3,045.4,0.449,727.8,01.19,0.508
2016-10-24 00:45:00,2678E-3,5C000000,-0724,0830,12105,028.3,045.5,0.450,727.8,01.19,0.508
2016-10-24 00:46:00,2693E-3,5C000000,-0724,0830,12284,028.3,045.5,0.449,727.8,01.19,0.508
2016-10-24 00:47:00,2832E-3,5C000000,-0724,0831,12326,028.3,045.5,0.449,727.8,01.19,0.508
2016-10-24 00:48:00,2753E-3,5C000000,-0724,0830,12272,028.3,045.4,0.449,727.8,01.19,0.508
2016-10-24 00:49:00,2797E-3,5C000000,-0724,0829,12105,028.3,045.5,0.449,727.8,01.19,0.508
2016-10-24 00:50:00,2644E-3,5C000000,-0724,0830,12112,028.3,045.5,0.450,727.8,01.19,0.508
2016-10-24 00:51:00,2906E-3,5C000000,-0724,0831,12199,028.3,045.5,0.449,727.8,01.19,0.508
2016-10-24 00:52:00,2845E-3,5C000000,-0724,0831,12310,028.3,045.5,0.449,727.8,01.19,0.508
2016-10-24 00:53:00,2714E-3,5C000000,-0724,0830,12256,028.3,045.4,0.449,727.9,01.19,0.508
2016-10-24 00:54:00,2770E-3,5C000000,-0724,0830,12216,028.3,045.4,0.449,727.9,01.19,0.508
2016-10-24 00:55:00,2759E-3,5C000000,-0724,0830,12239,028.3,045.5,0.449,727.9,01.19,0.508
2016-10-24 00:56:00,2843E-3,5C000000,-0724,0829,12178,028.3,045.5,0.449,727.9,01.19,0.508
2016-10-24 00:57:00,2793E-3,5C000000,-0724,0830,12154,028.3,045.5,0.450,727.9,01.19,0.508
2016-10-24 00:58:00,2662E-3,5C000000,-0724,0830,12114,028.3,045.5,0.449,727.9,01.19,0.508
2016-10-24 00:59:00,2617E-3,5C000000,-0724,0830,12169,028.3,045.5,0.449,727.9,01.19,0.508
2016-10-24 01:00:00,2906E-3,5C000000,-0724,0830,12098,028.4,045.4,0.449,727.9,01.19,0.508
2016-10-24 01:01:00,3011E-3,5C000000,-0724,0831,12263,028.3,045.5,0.449,727.9,01.19,0.508
2016-10-24 01:02:00,2859E-3,5C000000,-0724,0830,12252,028.3,045.5,0.449,727.9,01.19,0.508
2016-10-24 01:03:00,2738E-3,5C000000,-0724,0829,12182,028.4,045.5,0.449,727.9,01.19,0.508
2016-10-24 01:04:00,2966E-3,5C000000,-0724,0829,12284,028.3,045.5,0.450,727.9,01.19,0.508
2016-10-24 01:05:00,2698E-3,5C000000,-0724,0830,12206,028.3,045.5,0.449,727.9,01.19,0.508
2016-10-24 01:06:00,2764E-3,5C000000,-0724,0830,12264,028.4,045.5,0.449,727.9,01.19,0.508
2016-10-24 01:07:00,2898E-3,5C000000,-0724,0831,12224,028.4,045.5,0.449,728.0,01.19,0.508
2016-10-24 01:08:00,2734E-3,5C000000,-0724,0830,12162,028.4,045.5,0.449,727.9,01.19,0.508
2016-10-24 01:09:00,2680E-3,5C000000,-0724,0831,12245,028.4,045.4,0.450,728.0,01.19,0.508
2016-10-24 01:10:00,2706E-3,5C000000,-0724,0830,12130,028.4,045.4,0.449,727.9,01.19,0.508
2016-10-24 01:11:00,2754E-3,5C000000,-0724,0830,12146,028.4,045.5,0.449,728.0,01.19,0.508
2016-10-24 01:12:00,2767E-3,5C000000,-0724,0831,12162,028.4,045.5,0.449,728.0,01.19,0.508
2016-10-24 01:13:00,2800E-3,5C000000,-0724,0831,12175,028.4,045.4,0.449,728.0,01.19,0.508
2016-10-24 01:14:00,2738E-3,5C000000,-0724,0830,12238,028.4,045.5,0.450,728.0,01.19,0.508
2016-10-24 01:15:00,2801E-3,5C000000,-0724,0830,12189,028.4,045.5,0.449,727.9,01.19,0.508
2016-10-24 01:16:00,2772E-3,5C000000,-0724,0830,12119,028.4,045.5,0.449,728.0,01.19,0.508
2016-10-24 01:17:00,2654E-3,5C000000,-0724,0830,12242,028.4,045.5,0.449,728.0,01.19,0.508
2016-10-24 01:18:00,2862E-3,5C000000,-0724,0830,12306,028.4,045.5,0.449,728.0,01.19,0.508
2016-10-24 01:19:00,2645E-3,5C000000,-0724,0831,12186,028.4,045.5,0.450,728.0,01.19,0.508
2016-10-24 01:20:00,2768E-3,5C000000,-0724,0831,12219,028.4,045.5,0.449,728.0,01.19,0.508
2016-10-24 01:21:00,2884E-3,5C000000,-0724,0829,12113,028.4,045.4,0.449,728.0,01.19,0.508
2016-10-24 01:22:00,2834E-3,5C000000,-0724,0830,12182,028.4,045.5,0.450,728.0,01.19,0.508
2016-10-24 01:23:00,2777E-3,5C000000,-0724,0830,12201,028.4,045.5,0.449,728.0,01.19,0.508
2016-10-24 01:24:00,2688E-3,5C000000,-0724,0829,12171,028.4,045.4,0.449,728.0,01.19,0.508
2016-10-24 01:25:00,2770E-3,5C000000,-0724,0831,12292,028.4,045.5,0.449,728.0,01.19,0.508
2016-10-24 01:26:00,2890E-3,5C000000,-0724,0830,11996,028.4,045.5,0.449,728.0,01.19,0.508
2016-10-24 01:27:00,2872E-3,5C000000,-0724,0830,12150,028.4,045.5,0.449,728.0,01.19,0.508
2016-10-24 01:28:00,2725E-3,5C000000,-0724,0831,12126,028.4,045.4,0.449,728.0,01.19,0.508
2016-10-24 01:29:00,2781E-3,5C000000,-0724,0830,12151,028.4,045.5,0.449,728.0,01.19,0.508
2016-10-24 01:30:00,2744E-3,5C000000,-0724,0830,12168,028.4,045.5,0.449,728.0,01.19,0.508
2016-10-24 01:31:00,2805E-3,5C000000,-0724,0830,12164,028.4,045.5,0.449,728.0,01.19,0.508
2016-10-24 01:32:00,2803E-3,5C000000,-0724,0830,12285,028.4,045.5,0.449,728.1,01.19,0.508
2016-10-24 01:33:00,2913E-3,5C000000,-0724,0830,12238,028.4,045.5,0.449,728.0,01.19,0.508
2016-10-24 01:34:00,2894E-3,5C000000,-0724,0830,12334,028.4,045.5,0.449,728.0,01.19,0.508
2016-10-24 01:35:00,2822E-3,5C000000,-0724,0830,12236,028.4,045.5,0.449,728.1,01.19,0.508
2016-10-24 01:36:00,2786E-3,5C000000,-0724,0830,12154,028.4,045.5,0.449,728.0,01.19,0.508
2016-10-24 01:37:00,2642E-3,5C000000,-0724,0830,12234,028.4,045.5,0.449,728.0,01.19,0.508
2016-10-24 01:38:00,2768E-3,5C000000,-0724,0830,12184,028.4,045.5,0.449,728.1,01.19,0.508
2016-10-24 01:39:00,2743E-3,5C000000,-0724,0831,12113,028.4,045.4,0.449,728.1,01.19,0.508
2016-10-24 01:40:00,2770E-3,5C000000,-0724,0830,12211,028.4,045.5,0.449,728.0,01.19,0.508
2016-10-24 01:41:00,2752E-3,5C000000,-0724,0829,12272,028.4,045.5,0.449,728.0,01.19,0.508
2016-10-24 01:42:00,2640E-3,5C000000,-0724,0831,12104,028.4,045.4,0.449,728.1,01.19,0.508
2016-10-24 01:43:00,2878E-3,5C000000,-0724,0829,12158,028.4,045.4,0.449,728.1,01.19,0.508
2016-10-24 01:44:00,2752E-3,5C000000,-0724,0830,12208,028.4,045.5,0.449,728.1,01.19,0.508
2016-10-24 01:45:00,2829E-3,5C000000,-0724,0830,12271,028.5,045.5,0.449,728.1,01.19,0.508
2016-10-24 01:46:00,2935E-3,5C000000,-0724,0830,12235,028.4,045.5,0.449,728.1,01.19,0.508
2016-10-24 01:47:00,2945E-3,5C000000,-0724,0830,12199,028.5,045.5,0.449,728.1,01.19,0.508
2016-10-24 01:48:00,2623E-3,5C000000,-0724,0831,12158,028.4,045.4,0.449,728.0,01.19,0.508
2016-10-24 01:49:00,2765E-3,5C000000,-0724,0830,12272,028.5,045.5,0.449,728.0,01.19,0.508
2016-10-24 01:50:00,2811E-3,5C000000,-0724,0830,12075,028.5,045.5,0.449,728.1,01.19,0.508
2016-10-24 01:51:00,2839E-3,5C000000,-0724,0830,12176,028.5,045.5,0.449,728.0,01.19,0.508
2016-10-24 01:52:00,2783E-3,5C000000,-0724,0831,12202,028.5,045.5,0.449,728.0,01.19,0.508
2016-10-24 01:53:00,2852E-3,5C000000,-0724,0830,12221,028.5,045.5,0.449,728.0,01.19,0.508
2016-10-24 01:54:00,2729E-3,5C000000,-0724,0830,12179,028.5,045.5,0.449,728.0,01.19,0.508
2016-10-24 01:55:00,2865E-3,5C000000,-0724,0830,12249,028.5,045.5,0.449,728.0,01.19,0.508
2016-10-24 01:56:00,2751E-3,5C000000,-0724,0830,12185,028.5,045.5,0.449,728.0,01.19,0.508
2016-10-24 01:57:00,2645E-3,5C000000,-0724,0830,12158,028.5,045.5,0.449,728.0,01.19,0.508
2016-10-24 01:58:00,2867E-3,5C000000,-0724,0829,12131,028.5,045.5,0.449,728.0,01.19,0.508
2016-10-24 01:59:00,2653E-3,5C000000,-0724,0830,12134,028.5,045.5,0.449,728.0,01.19,0.508
2016-10-24 02:00:00,2849E-3,5C000000,-0724,0830,12008,028.5,045.5,0.449,728.0,01.19,0.508
2016-10-24 02:01:00,2808E-3,5C000000,-0724,0830,12232,028.5,045.4,0.449,728.1,01.19,0.508
2016-10-24 02:02:00,2752E-3,5C000000,-0724,0830,12281,028.5,045.5,0.449,728.1,01.19,0.508
2016-10-24 02:03:00,2949E-3,5C000000,-0724,0830,12156,028.5,045.5,0.449,728.1,01.19,0.508
2016-10-24 02:04:00,2803E-3,5C000000,-0724,0829,12253,028.5,045.5,0.449,728.1,01.19,0.508
2016-10-24 02:05:00,2664E-3,5C000000,-0724,0830,12343,028.5,045.5,0.449,728.1,01.19,0.508
2016-10-24 02:06:00,2966E-3,5C000000,-0724,0830,12298,028.5,045.5,0.449,728.1,01.19,0.508
2016-10-24 02:07:00,2829E-3,5C000000,-0724,0830,12163,028.5,045.5,0.449,728.1,01.19,0.508
2016-10-24 02:08:00,2834E-3,5C000000,-0724,0830,12198,028.5,045.5,0.449,728.1,01.19,0.508
2016-10-24 02:09:00,2734E-3,5C000000,-0724,0830,12095,028.5,045.4,0.449,728.2,01.19,0.508
2016-10-24 02:10:00,2761E-3,5C000000,-0724,0830,12117,028.5,045.5,0.449,728.2,01.19,0.508
2016-10-24 02:11:00,2718E-3,5C000000,-0724,0829,12266,028.5,045.5,0.449,728.2,01.19,0.508
2016-10-24 02:12:00,2684E-3,5C000000,-0724,0830,12242,028.6,045.5,0.449,728.2,01.19,0.508
2016-10-24 02:13:00,2875E-3,5C000000,-0724,0831,12180,028.6,045.5,0.449,728.2,01.19,0.508
2016-10-24 02:14:00,2767E-3,5C000000,-0724,0830,12157,028.6,045.5,0.449,728.2,01.19,0.508
2016-10-24 02:15:00,2682E-3,5C000000,-0724,0830,12142,028.6,045.5,0.449,728.2,01.19,0.508
2016-10-24 02:16:00,2636E-3,5C000000,-0724,0830,12204,028.6,045.5,0.449,728.2,01.19,0.508
2016-10-24 02:17:00,2721E-3,5C000000,-0724,0830,12069,028.6,045.5,0.449,728.3,01.19,0.508
2016-10-24 02:18:00,2858E-3,5C000000,-0724,0831,12335,028.6,045.4,0.449,728.2,01.19,0.508
2016-10-24 02:19:00,2702E-3,5C000000,-0724,0829,12061,028.6,045.5,0.449,728.3,01.19,0.508
2016-10-24 02:20:00,2797E-3,5C000000,-0724,0830,12232,028.6,045.5,0.449,728.3,01.19,0.508
2016-10-24 02:21:00,2782E-3,5C000000,-0724,0830,12108,028.6,045.5,0.449,728.3,01.19,0.508
2016-10-24 02:22:00,2803E-3,5C000000,-0724,0830,12337,028.6,045.5,0.449,728.3,01.19,0.508
2016-10-24 02:23:00,2777E-3,5C000000,-0724,0829,12283,028.6,045.5,0.449,728.3,01.19,0.508
2016-10-24 02:24:00,2764E-3,5C000000,-0724,0830,12233,028.6,045.5,0.449,728.3,01.19,0.508
2016-10-24 02:25:00,2758E-3,5C000000,-0724,0829,12110,028.6,045.5,0.449,728.3,01.19,0.508
2016-10-24 02:26:00,2644E-3,5C000000,-0724,0830,12098,028.6,045.5,0.449,728.3,01.19,0.508
2016-10-24 02:27:00,2848E-3,5C000000,-0724,0830,12024,028.6,045.5,0.449,728.3,01.19,0.508
2016-10-24 02:28:00,2820E-3,5C000000,-0724,0830,12250,028.6,045.5,0.449,728.3,01.19,0.508
2016-10-24 02:29:00,2676E-3,5C000000,-0724,0830,12278,028.6,045.5,0.448,728.3,01.19,0.508
2016-10-24 02:30:00,2697E-3,5C000000,-0724,0830,12002,028.6,045.5,0.449,728.3,01.19,0.508
2016-10-24 02:31:00,2883E-3,5C000000,-0724,0830,12175,028.6,045.5,0.449,728.3,01.19,0.508
2016-10-24 02:32:00,2748E-3,5C000000,-0724,0830,12236,028.7,045.5,0.448,728.3,01.19,0.508
2016-10-24 02:33:00,2667E-3,5C000000,-0724,0829,12258,028.7,045.5,0.449,728.3,01.19,0.508
2016-10-24 02:34:00,2825E-3,5C000000,-0724,0831,12106,028.7,045.5,0.449,728.3,01.19,0.508
2016-10-24 02:35:00,2780E-3,5C000000,-0724,0831,12229,028.7,045.5,0.448,728.3,01.19,0.508
2016-10-24 02:36:00,2891E-3,5C000000,-0724,0830,12221,028.7,045.5,0.449,728.3,01.19,0.508
2016-10-24 02:37:00,2839E-3,5C000000,-0724,0830,12312,028.7,045.5,0.449,728.3,01.19,0.508
2016-10-24 02:38:00,2864E-3,5C000000,-0724,0830,12179,028.7,045.5,0.448,728.3,01.19,0.508
2016-10-24 02:39:00,2759E-3,5C000000,-0724,0831,12225,028.7,045.5,0.449,728.3,01.19,0.508
2016-10-24 02:40:00,2894E-3,5C000000,-0724,0830,12145,028.7,045.5,0.449,728.3,01.19,0.508
2016-10-24 02:41:00,2746E-3,5C000000,-0724,0830,12247,028.7,045.5,0.448,728.3,01.19,0.508
2016-10-24 02:42:00,2831E-3,5C000000,-0724,0830,12318,028.7,045.5,0.449,728.3,01.19,0.508
2016-10-24 02:43:00,2709E-3,5C000000,-0724,0829,12162,028.7,045.5,0.448,728.4,01.19,0.508
2016-10-24 02:44:00,2864E-3,5C000000,-0724,0830,12233,028.7,045.5,0.449,728.4,01.19,0.508
2016-10-24 02:45:00,2827E-3,5C000000,-0724,0831,12139,028.7,045.5,0.449,728.4,01.19,0.508
2016-10-24 02:46:00,2794E-3,5C000000,-0724,0830,12004,028.7,045.5,0.448,728.4,01.19,0.508
2016-10-24 02:47:00,2855E-3,5C000000,-0724,0830,12231,028.8,045.5,0.449,728.4,01.19,0.508
2016-10-24 02:48:00,2739E-3,5C000000,-0724,0830,12084,028.7,045.5,0.449,728.4,01.19,0.508
2016-10-24 02:49:00,2828E-3,5C000000,-0724,0830,12183,028.7,045.5,0.448,728.4,01.19,0.508
2016-10-24 02:50:00,2869E-3,5C000000,-0724,0830,12187,028.8,045.5,0.449,728.4,01.19,0.508
2016-10-24 02:51:00,2915E-3,5C000000,-0724,0829,12274,028.8,045.5,0.449,728.4,01.19,0.508
2016-10-24 02:52:00,2749E-3,5C000000,-0724,0830,12203,028.8,045.5,0.449,728.4,01.19,0.508
2016-10-24 02:53:00,2726E-3,5C000000,-0724,0829,12181,028.8,045.5,0.449,728.4,01.19,0.508
2016-10-24 02:54:00,2779E-3,5C000000,-0724,0830,12104,028.8,045.5,0.448,728.4,01.19,0.508
2016-10-24 02:55:00,2897E-3,5C000000,-0724,0831,12119,028.8,045.5,0.449,728.3,01.19,0.508
2016-10-24 02:56:00,2827E-3,5C000000,-0724,0830,12034,028.8,045.5,0.449,728.4,01.19,0.508
2016-10-24 02:57:00,2779E-3,5C000000,-0724,0830,12171,028.8,045.5,0.448,728.4,01.19,0.508
2016-10-24 02:58:00,2632E-3,5C000000,-0724,0830,12036,028.8,045.5,0.449,728.4,01.19,0.508
2016-10-24 02:59:00,2828E-3,5C000000,-0724,0830,12253,028.8,045.5,0.449,728.4,01.19,0.508
2016-10-24 03:00:00,2700E-3,5C000000,-0724,0830,12345,028.8,045.5,0.448,728.4,01.19,0.508
2016-10-24 03:01:00,2951E-3,5C000000,-0724,0830,12141,028.8,045.5,0.449,728.4,01.19,0.508
2016-10-24 03:02:00,2836E-3,5C000000,-0724,0830,12054,028.8,045.5,0.448,728.4,01.19,0.508
2016-10-24 03:03:00,2808E-3,5C000000,-0724,0831,12130,028.8,045.5,0.449,728.4,01.19,0.508
2016-10-24 03:04:00,2810E-3,5C000000,-0724,0830,12134,028.8,045.5,0.449,728.4,01.19,0.508
2016-10-24 03:05:00,2837E-3,5C000000,-0724,0830,12248,028.8,045.5,0.448,728.4,01.19,0.508
2016-10-24 03:06:00,2869E-3,5C000000,-0724,0830,12152,028.8,045.5,0.449,728.4,01.19,0.508
2016-10-24 03:07:00,2949E-3,5C000000,-0724,0830,12250,028.9,045.5,0.449,728.4,01.19,0.508
2016-10-24 03:08:00,2861E-3,5C000000,-0724,0830,12056,028.9,045.5,0.448,728.4,01.19,0.508
2016-10-24 03:09:00,2856E-3,5C000000,-0724,0830,12221,028.9,045.5,0.449,728.4,01.19,0.508
2016-10-24 03:10:00,2768E-3,5C000000,-0724,0831,12132,028.9,045.5,0.449,728.4,01.19,0.508
2016-10-24 03:11:00,2945E-3,5C000000,-0724,0830,12248,028.9,045.5,0.448,728.4,01.19,0.508
2016-10-24 03:12:00,2928E-3,5C000000,-0724,0830,12243,028.9,045.5,0.449,728.4,01.19,0.508
2016-10-24 03:13:00,2898E-3,5C000000,-0724,0829,12148,028.9,045.5,0.448,728.4,01.19,0.508
2016-10-24 03:14:00,2956E-3,5C000000,-0724,0830,12187,028.9,045.5,0.449,728.4,01.19,0.508
2016-10-24 03:15:00,2864E-3,5C000000,-0724,0830,12138,028.9,045.5,0.449,728.4,01.19,0.508
2016-10-24 03:16:00,2762E-3,5C000000,-0724,0829,12116,028.9,045.5,0.448,728.5,01.19,0.508
2016-10-24 03:17:00,2695E-3,5C000000,-0724,0831,12298,028.9,045.5,0.449,728.5,01.19,0.508
2016-10-24 03:18:00,2957E-3,5C000000,-0724,0831,12046,028.9,045.5,0.449,728.5,01.19,0.508
2016-10-24 03:19:00,2826E-3,5C000000,-0724,0830,12193,028.9,045.5,0.448,728.5,01.19,0.508
2016-10-24 03:20:00,2702E-3,5C000000,-0724,0829,12100,028.9,045.5,0.449,728.6,01.19,0.508
2016-10-24 03:21:00,2896E-3,5C000000,-0724,0830,12213,028.9,045.5,0.448,728.6,01.19,0.508
2016-10-24 03:22:00,2896E-3,5C000000,-0724,0830,12145,029.0,045.5,0.448,728.6,01.19,0.508
2016-10-24 03:23:00,2824E-3,5C000000,-0724,0830,12306,028.9,045.5,0.449,728.6,01.19,0.508
2016-10-24 03:24:00,2880E-3,5C000000,-0724,0831,12015,028.9,045.5,0.448,728.6,01.19,0.508
2016-10-24 03:25:00,2907E-3,5C000000,-0724,0831,12235,029.0,045.5,0.448,728.6,01.19,0.508
2016-10-24 03:26:00,2781E-3,5C000000,-0724,0831,12282,028.9,045.5,0.449,728.6,01.19,0.508
2016-10-24 03:27:00,2767E-3,5C000000,-0724,0830,12266,029.0,045.5,0.448,728.6,01.19,0.508
2016-10-24 03:28:00,2945E-3,5C000000,-0724,0830,12147,029.0,045.5,0.448,728.6,01.19,0.508
2016-10-24 03:29:00,2837E-3,5C000000,-0724,0831,12230,029.0,045.5,0.449,728.6,01.19,0.508
2016-10-24 03:30:00,2823E-3,5C000000,-0724,0831,12154,029.0,045.5,0.448,728.6,01.19,0.508
2016-10-24 03:31:00,2834E-3,5C000000,-0724,0831,12310,029.0,045.5,0.449,728.6,01.19,0.508
2016-10-24 03:32:00,2962E-3,5C000000,-0724,0830,12184,029.0,045.5,0.449,728.6,01.19,0.508
2016-10-24 03:33:00,2846E-3,5C000000,-0724,0830,12240,029.0,045.5,0.448,728.6,01.19,0.508
2016-10-24 03:34:00,2870E-3,5C000000,-0724,0830,12078,029.0,045.5,0.449,728.6,01.19,0.508
2016-10-24 03:35:00,2836E-3,5C000000,-0724,0830,12293,029.0,045.5,0.449,728.6,01.19,0.508
2016-10-24 03:36:00,3026E-3,5C000000,-0724,0830,12151,029.0,045.5,0.448,728.6,01.19,0.508
2016-10-24 03:37:00,2792E-3,5C000000,-0724,0831,12091,029.0,045.5,0.449,728.6,01.19,0.508
2016-10-24 03:38:00,2864E-3,5C000000,-0724,0831,12081,029.0,045.5,0.449,728.6,01.19,0.508
2016-10-24 03:39:00,2851E-3,5C000000,-0724,0831,12129,029.0,045.5,0.448,728.6,01.19,0.508
2016-10-24 03:40:00,2812E-3,5C000000,-0724,0830,12225,029.1,045.5,0.449,728.7,01.19,0.508
2016-10-24 03:41:00,2766E-3,5C000000,-0724,0831,12411,029.0,045.5,0.449,728.6,01.19,0.508
2016-10-24 03:42:00,2880E-3,5C000000,-0724,0830,12087,029.0,045.5,0.448,728.7,01.19,0.508
2016-10-24 03:43:00,2781E-3,5C000000,-0724,0829,12128,029.1,045.5,0.449,728.6,01.19,0.508
2016-10-24 03:44:00,2812E-3,5C000000,-0724,0831,12212,029.1,045.5,0.448,728.6,01.19,0.508
2016-10-24 03:45:00,2789E-3,5C000000,-0724,0830,12267,029.1,045.5,0.448,728.7,01.19,0.508
2016-10-24 03:46:00,2815E-3,5C000000,-0724,0829,12214,029.1,045.5,0.449,728.7,01.19,0.508
2016-10-24 03:47:00,2684E-3,5C000000,-0724,0831,12102,029.1,045.5,0.448,728.7,01.19,0.508
2016-10-24 03:48:00,2883E-3,5C000000,-0724,0830,12092,029.1,045.5,0.448,728.7,01.19,0.508
2016-10-24 03:49:00,2890E-3,5C000000,-0724,0830,12101,029.1,045.5,0.449,728.7,01.19,0.508
2016-10-24 03:50:00,2990E-3,5C000000,-0724,0831,12158,029.1,045.5,0.448,728.7,01.19,0.508
2016-10-24 03:51:00,2652E-3,5C000000,-0724,0830,12278,029.1,045.5,0.448,728.7,01.19,0.508
2016-10-24 03:52:00,2913E-3,5C000000,-0724,0830,12245,029.1,045.5,0.448,728.7,01.19,0.508
2016-10-24 03:53:00,2725E-3,5C000000,-0724,0830,12225,029.1,045.5,0.449,728.7,01.19,0.508
2016-10-24 03:54:00,2911E-3,5C000000,-0724,0831,12060,029.1,045.5,0.448,728.7,01.19,0.508
2016-10-24 03:55:00,2889E-3,5C000000,-0724,0831,12158,029.1,045.5,0.448,728.8,01.19,0.508
2016-10-24 03:56:00,2765E-3,5C000000,-0724,0830,12408,029.1,045.5,0.449,728.7,01.19,0.508
2016-10-24 03:57:00,2957E-3,5C000000,-0724,0830,12270,029.1,045.5,0.448,728.7,01.19,0.508
2016-10-24 03:58:00,2752E-3,5C000000,-0724,0829,12122,029.2,045.5,0.448,728.8,01.19,0.508
2016-10-24 03:59:00,2857E-3,5C000000,-0724,0830,11974,029.2,045.5,0.449,728.7,01.19,0.508
2016-10-24 04:00:00,2813E-3,5C000000,-0724,0831,12307,029.2,045.5,0.448,728.8,01.19,0.508
2016-10-24 04:01:00,2871E-3,5C000000,-0724,0830,12115,029.2,045.5,0.448,728.8,01.19,0.508
2016-10-24 04:02:00,2737E-3,5C000000,-0724,0831,12249,029.2,045.5,0.449,728.7,01.19,0.508
2016-10-24 04:03:00,2917E-3,5C000000,-0724,0830,12163,029.2,045.5,0.448,728.8,01.19,0.508
2016-10-24 04:04:00,2850E-3,5C000000,-0724,0830,12146,029.2,045.5,0.448,728.8,01.19,0.508
2016-10-24 04:05:00,2811E-3,5C000000,-0724,0831,12264,029.2,045.5,0.448,728.8,01.19,0.508
2016-10-24 04:06:00,2858E-3,5C000000,-0724,0830,12163,029.2,045.5,0.448,728.8,01.19,0.508
2016-10-24 04:07:00,2874E-3,5C000000,-0724,0830,12202,029.2,045.5,0.448,728.8,01.19,0.508
2016-10-24 04:08:00,2865E-3,5C000000,-0724,0830,12247,029.2,045.5,0.448,728.8,01.19,0.508
2016-10-24 04:09:00,2997E-3,5C000000,-0724,0830,12158,029.3,045.5,0.449,728.8,01.19,0.508
2016-10-24 04:10:00,2829E-3,5C000000,-0724,0831,12201,029.3,045.5,0.448,728.8,01.19,0.508
2016-10-24 04:11:00,3081E-3,5C000000,-0724,0831,12206,029.3,045.5,0.448,728.8,01.19,0.508
2016-10-24 04:12:00,2853E-3,5C000000,-0724,0830,12155,029.3,045.5,0.449,728.8,01.19,0.508
2016-10-24 04:13:00,2919E-3,5C000000,-0724,0831,12274,029.3,045.5,0.448,728.8,01.19,0.508
2016-10-24 04:14:00,2812E-3,5C000000,-0724,0830,12019,029.3,045.5,0.448,728.9,01.19,0.508
2016-10-24 04:15:00,2991E-3,5C000000,-0724,0829,12341,029.3,045.5,0.448,728.9,01.19,0.508
2016-10-24 04:16:00,2895E-3,5C000000,-0724,0830,12344,029.3,045.5,0.448,728.9,01.19,0.508
2016-10-24 04:17:00,2936E-3,5C000000,-0724,0830,12163,029.3,045.5,0.448,728.9,01.19,0.508
2016-10-24 04:18:00,3140E-3,5C000000,-0724,0831,12152,029.4,045.5,0.448,728.9,01.19,0.508
2016-10-24 04:19:00,3069E-3,5C000000,-0724,0830,12075,029.4,045.5,0.448,729.0,01.19,0.508
2016-10-24 04:20:00,3069E-3,5C000000,-0724,0830,12241,029.4,045.5,0.448,729.0,01.19,0.508